When you browse on this site, cookies collect data to enhance your experience and personalize the content and advertising you see.
Visit our Privacy Policy to learn more. By continuing to use the site, you agree to this use of cookies and data.
EN

Hourly Weather Vasilkovo

Today, 6 August, Thursday

Time Temperature Precipitation Wind Pressure Humidity
00:00 +20°C° 0 mm 1 mps 749 mmHg 97%
01:00 +19°C° 0 mm 1 mps 749 mmHg 97%
02:00 +19°C° 0 mm 1 mps 749 mmHg 97%
03:00 +18°C° 0 mm 2 mps 749 mmHg 97%
04:00 +18°C° 0 mm 2 mps 750 mmHg 97%
05:00 +18°C° 0 mm 2 mps 750 mmHg 97%
06:00 +19°C° 0 mm 2 mps 750 mmHg 94%
07:00 +20°C° 0 mm 2 mps 751 mmHg 91%
08:00 +21°C° 0 mm 2 mps 751 mmHg 88%
09:00 +22°C° 0 mm 3 mps 751 mmHg 84%
10:00 +24°C° 0 mm 3 mps 751 mmHg 79%
11:00 +25°C° 0 mm 3 mps 751 mmHg 75%
12:00 +25°C° 0 mm 4 mps 751 mmHg 72%
13:00 +25°C° 0 mm 4 mps 752 mmHg 70%
14:00 +26°C° 0 mm 4 mps 752 mmHg 67%
15:00 +25°C° 0 mm 4 mps 752 mmHg 68%
16:00 +25°C° 0 mm 4 mps 752 mmHg 70%
17:00 +24°C° 0 mm 3 mps 751 mmHg 71%
18:00 +22°C° 0 mm 3 mps 752 mmHg 74%
19:00 +20°C° 0 mm 3 mps 752 mmHg 78%
20:00 +18°C° 0 mm 2 mps 752 mmHg 81%
21:00 +18°C° 0 mm 2 mps 752 mmHg 81%
22:00 +17°C° 0 mm 2 mps 753 mmHg 81%
23:00 +17°C° 0 mm 2 mps 753 mmHg 81%

Tomorrow, 7 August, Friday

Time Temperature Precipitation Wind Pressure Humidity
00:00 +16°C° 0 mm 2 mps 753 mmHg 81%
01:00 +16°C° 0 mm 2 mps 753 mmHg 81%
02:00 +15°C° 0 mm 2 mps 753 mmHg 81%
03:00 +15°C° 0 mm 2 mps 753 mmHg 83%
04:00 +15°C° 0 mm 2 mps 753 mmHg 85%
05:00 +15°C° 0 mm 2 mps 754 mmHg 87%
06:00 +16°C° 0 mm 2 mps 754 mmHg 83%
07:00 +18°C° 0 mm 3 mps 754 mmHg 80%
08:00 +19°C° 0 mm 3 mps 754 mmHg 77%
09:00 +21°C° 0 mm 3 mps 754 mmHg 73%
10:00 +22°C° 0 mm 3 mps 754 mmHg 69%
11:00 +24°C° 0 mm 3 mps 754 mmHg 64%
12:00 +24°C° 0 mm 3 mps 754 mmHg 65%
13:00 +25°C° 0 mm 3 mps 754 mmHg 65%
14:00 +25°C° 0 mm 3 mps 754 mmHg 65%
15:00 +25°C° 0 mm 3 mps 753 mmHg 67%
16:00 +25°C° 0 mm 3 mps 753 mmHg 70%
17:00 +25°C° 0 mm 3 mps 753 mmHg 72%
18:00 +22°C° 0 mm 3 mps 753 mmHg 78%
19:00 +21°C° 0 mm 2 mps 753 mmHg 83%
20:00 +19°C° 0 mm 2 mps 753 mmHg 89%
21:00 +19°C° 0 mm 2 mps 753 mmHg 90%
22:00 +18°C° 0 mm 2 mps 753 mmHg 90%
23:00 +19°C° 0 mm 1 mps 753 mmHg 91%

Day after tomorrow, 8 August, Saturday

Time Temperature Precipitation Wind Pressure Humidity
00:00 +19°C° 0 mm 1 mps 753 mmHg 91%
01:00 +18°C° 0 mm 1 mps 753 mmHg 90%
02:00 +18°C° 0 mm 1 mps 753 mmHg 90%
03:00 +18°C° 0 mm 1 mps 753 mmHg 91%
04:00 +18°C° 0 mm 1 mps 753 mmHg 91%
05:00 +17°C° 0 mm 2 mps 753 mmHg 92%
06:00 +19°C° 0 mm 1 mps 753 mmHg 89%
07:00 +20°C° 0 mm 1 mps 753 mmHg 85%
08:00 +22°C° 0 mm 1 mps 753 mmHg 82%
09:00 +23°C° 0.4 mm 2 mps 752 mmHg 78%
10:00 +24°C° 0.4 mm 2 mps 752 mmHg 75%
11:00 +25°C° 0.4 mm 2 mps 752 mmHg 72%
12:00 +24°C° 0.4 mm 2 mps 752 mmHg 73%
13:00 +24°C° 0.4 mm 2 mps 751 mmHg 75%
14:00 +24°C° 0.4 mm 2 mps 751 mmHg 76%
15:00 +24°C° 0.1 mm 2 mps 750 mmHg 74%
16:00 +25°C° 0.1 mm 2 mps 750 mmHg 72%
17:00 +25°C° 0.1 mm 1 mps 750 mmHg 70%
18:00 +23°C° 0.1 mm 1 mps 750 mmHg 76%
19:00 +22°C° 0.1 mm 1 mps 750 mmHg 82%
20:00 +20°C° 0.1 mm 1 mps 750 mmHg 88%
21:00 +20°C° 0 mm 1 mps 750 mmHg 89%
22:00 +18°C° 0 mm 2 mps 750 mmHg 91%
23:00 +18°C° 0 mm 2 mps 750 mmHg 92%

9 August, Sunday

Time Temperature Precipitation Wind Pressure Humidity
00:00 +18°C° 0 mm 1 mps 749 mmHg 93%
01:00 +18°C° 0 mm 1 mps 749 mmHg 93%
02:00 +18°C° 0 mm 1 mps 749 mmHg 94%
03:00 +16°C° 0 mm 1 mps 749 mmHg 94%
04:00 +16°C° 0 mm 1 mps 749 mmHg 94%
05:00 +16°C° 0 mm 2 mps 749 mmHg 94%
06:00 +18°C° 0 mm 2 mps 749 mmHg 90%
07:00 +19°C° 0 mm 2 mps 749 mmHg 86%
08:00 +21°C° 0 mm 2 mps 749 mmHg 82%
09:00 +23°C° 0.4 mm 2 mps 749 mmHg 78%
10:00 +24°C° 0.4 mm 2 mps 749 mmHg 74%
11:00 +25°C° 0.4 mm 2 mps 749 mmHg 70%
12:00 +25°C° 0.5 mm 2 mps 749 mmHg 69%
13:00 +26°C° 0.5 mm 3 mps 749 mmHg 68%
14:00 +26°C° 0.5 mm 3 mps 748 mmHg 67%
15:00 +26°C° 0 mm 3 mps 748 mmHg 68%
16:00 +26°C° 0 mm 3 mps 748 mmHg 69%
17:00 +26°C° 0 mm 2 mps 748 mmHg 70%
18:00 +24°C° 0.1 mm 2 mps 748 mmHg 74%
19:00 +21°C° 0.1 mm 2 mps 748 mmHg 79%
20:00 +20°C° 0.1 mm 2 mps 748 mmHg 84%
21:00 +19°C° 0 mm 2 mps 748 mmHg 85%
22:00 +19°C° 0 mm 2 mps 748 mmHg 87%
23:00 +18°C° 0 mm 2 mps 748 mmHg 88%

10 August, Monday

Time Temperature Precipitation Wind Pressure Humidity
00:00 +18°C° 0 mm 2 mps 748 mmHg 89%
01:00 +17°C° 0 mm 2 mps 748 mmHg 89%
02:00 +17°C° 0 mm 2 mps 748 mmHg 90%
03:00 +18°C° 0 mm 1 mps 748 mmHg 90%
04:00 +18°C° 0 mm 1 mps 748 mmHg 90%
05:00 +18°C° 0 mm 1 mps 748 mmHg 90%
06:00 +19°C° 0 mm 1 mps 748 mmHg 86%
07:00 +21°C° 0 mm 1 mps 749 mmHg 82%
08:00 +23°C° 0 mm 2 mps 749 mmHg 78%
09:00 +24°C° 0.2 mm 2 mps 749 mmHg 74%
10:00 +25°C° 0.2 mm 2 mps 749 mmHg 70%
11:00 +26°C° 0.2 mm 2 mps 749 mmHg 66%
12:00 +26°C° 0.4 mm 2 mps 748 mmHg 64%
13:00 +27°C° 0.4 mm 2 mps 748 mmHg 62%
14:00 +27°C° 0.4 mm 2 mps 748 mmHg 59%
15:00 +27°C° 0.1 mm 2 mps 748 mmHg 62%
16:00 +27°C° 0.1 mm 2 mps 748 mmHg 66%
17:00 +27°C° 0.1 mm 2 mps 748 mmHg 69%
18:00 +25°C° 0 mm 2 mps 747 mmHg 73%
19:00 +23°C° 0 mm 1 mps 747 mmHg 77%
20:00 +21°C° 0 mm 1 mps 747 mmHg 81%
21:00 +21°C° 0.1 mm 1 mps 747 mmHg 83%
22:00 +20°C° 0.1 mm 1 mps 748 mmHg 84%
23:00 +20°C° 0.1 mm 1 mps 748 mmHg 86%

11 August, Tuesday

Time Temperature Precipitation Wind Pressure Humidity
00:00 +20°C° 0 mm 1 mps 748 mmHg 87%
01:00 +19°C° 0 mm 1 mps 748 mmHg 88%
02:00 +19°C° 0 mm 1 mps 748 mmHg 89%
03:00 +19°C° 0 mm 1 mps 748 mmHg 89%
04:00 +18°C° 0 mm 1 mps 748 mmHg 89%
05:00 +18°C° 0 mm 1 mps 748 mmHg 90%
06:00 +20°C° 0 mm 1 mps 748 mmHg 84%
07:00 +21°C° 0 mm 1 mps 748 mmHg 79%
08:00 +23°C° 0 mm 1 mps 748 mmHg 74%
09:00 +24°C° 0.3 mm 1 mps 748 mmHg 71%
10:00 +25°C° 0.3 mm 2 mps 747 mmHg 68%
11:00 +26°C° 0.3 mm 2 mps 747 mmHg 64%
12:00 +27°C° 0.4 mm 2 mps 747 mmHg 64%
13:00 +27°C° 0.4 mm 3 mps 747 mmHg 65%
14:00 +27°C° 0.4 mm 3 mps 747 mmHg 65%
15:00 +26°C° 0.7 mm 3 mps 747 mmHg 68%
16:00 +26°C° 0.7 mm 3 mps 747 mmHg 72%
17:00 +26°C° 0.7 mm 2 mps 746 mmHg 76%
18:00 +24°C° 0.3 mm 2 mps 747 mmHg 80%
19:00 +21°C° 0.3 mm 3 mps 747 mmHg 84%
20:00 +20°C° 0.3 mm 3 mps 747 mmHg 88%
21:00 +19°C° 0.1 mm 3 mps 747 mmHg 90%
22:00 +18°C° 0.1 mm 3 mps 747 mmHg 91%
23:00 +17°C° 0.1 mm 3 mps 747 mmHg 93%
Show more